LFKBLFKJ

Guest
Details From LFKB - Bastia Poretta
To LFKJ - Napoleon Bonaparte
Flight Number -
Tags generated
Created
Modified
Stats Distance 51 nm / 94 km
Max Altitude 400 ft / 122 m
Waypoints 3
Social Downloads 0
Likes 0
Share VATSIM

Download

Looking for another format? Having issues loading an existing format? Contact us
Advertisement - Login to hide

Notes

Basic altitude profile: - Ascent Rate: 1000ft/min - Ascent Speed: 110kts - Cruise Altitude: 100ft - Cruise Speed: 140kts - Descent Rate: 800ft/min - Descent Speed: 120kts Options: - Use NATs: no - Use PACOTS: no - Use low airways: no - Use high airways: yes

Route

LFKB BTA LFKJ

ID Type Via Altitude Latitude Longitude Leg Dist Tot Dist Heading (true) Name
O LFKB APT - 0 ft / 0 m 42.55251˚ 9.48371˚ - 0 nm - Bastia Poretta
BTA VOR - 400 ft / 122 m 42.57369˚ 9.47459˚ 1 nm 1 nm 342° / 342° BASTIA PORETTA VOR-DME
O LFKJ APT - 0 ft / 0 m 41.92289˚ 8.79959˚ 49 nm 50 nm 218° / 217° Napoleon Bonaparte

Altitude Profile

Advertisement - Login to hide

LFKB

Details ICAO LFKB (BIA)
Name Bastia Poretta
Region France
Timezone Europe/Paris (UTC+1.0)
Stats Elevation 25 ft / 8 m (AMSL)
Location 42.552508° 9.483709°
Runways 1
Magnetic Variation 2.485° E

METAR

LFKB 141330Z AUTO 16005KT 130V190 CAVOK 17/10 Q1009 TEMPO 25015G25KT

Decode

TAF

TAF TAF LFKB 140800Z 1409/1509 23008KT 9999 FEW040 BKN080 BKN200 TEMPO 1409/1421 25015G25KT TX17/1413Z TN09/1504Z

Decode

Departure Runways

ID Width Length Bearing (true) Bearing (mag) Surface Threshold Offset Overrun Length
16 148 ft / 45 m 8,273 ft / 2,522 m 162.83° 160.35° Concrete 0 ft / 0 m 131 ft / 40 m
34 148 ft / 45 m 8,273 ft / 2,522 m 342.84° 340.36° Concrete 0 ft / 0 m 0 ft / 0 m

LFKJ

Details ICAO LFKJ (AJA)
Name Napoleon Bonaparte
Region France
Timezone Europe/Paris (UTC+1.0)
Stats Elevation 18 ft / 5 m (AMSL)
Location 41.922886° 8.799587°
Runways 2
Magnetic Variation 2.329° E

METAR

LFKJ 141330Z AUTO 24004KT 9000 FEW027 BKN033 BKN074 15/11 Q1014 BECMG 25015KT

Decode

TAF

TAF AMD LFKJ 140900Z 1409/1509 25015KT 9999 SCT030 BKN060 BECMG 1416/1419 VRB05KT TEMPO 1421/1506 4000 RA BKN014 OVC050 BECMG 1506/1507 25015G25KT

Decode

Destination Runways

ID Width Length Bearing (true) Bearing (mag) Surface Threshold Offset Overrun Length
02 180 ft / 55 m 7,899 ft / 2,408 m 24.94° 22.61° Asphalt 0 ft / 0 m 164 ft / 50 m
10 98 ft / 30 m 3,447 ft / 1,051 m 94.35° 92.02° Concrete 0 ft / 0 m 164 ft / 50 m
20 180 ft / 55 m 7,899 ft / 2,408 m 204.95° 202.62° Asphalt 745 ft / 227 m 230 ft / 70 m
28 98 ft / 30 m 3,447 ft / 1,051 m 274.36° 272.03° Concrete 213 ft / 65 m 0 ft / 0 m

Approach Navaids

Runway Type Ident Frequency Range Bearing (true) Bearing (mag) Slope Elevation
02 Localiser AC 110.30 MHz 27 nm / 50 km 24.92° 22.59° - 18 ft / 5 m (AMSL)
02 Glidescope AC 110.30 MHz 27 nm / 50 km 24.92° 22.59° 3.00° 18 ft / 5 m (AMSL)
02 DME AC 110.30 MHz 27 nm / 50 km - - - 18 ft / 5 m (AMSL)

Popular Alternatives